Погода в Прокудино

Россия / Калужская область     54°39′03″N   35°45′53″E
темп.,
°C
ветер,
м/с
пор.,
м/с
влажн.,
%
обл.,
%
осадки,
мм/ч
давл.,
гПа
погр.,
м
5 марта, пт
пт500:00−3зсз2695100 0.3 1003284
03:00−7сз259383 0.3 1006142
06:00−8зсз23950 0.0 100880
09:00−7зсз24929 0.0 1009201
12:00−2зсз357999 0.1 1010862
15:00−2зсз356999 0.1 10111078
18:00−5зсз228392 0.0 101321
21:00−7зюз118946 0.0 101521
6 марта, сб
сб600:00−8ююз119249 0.0 101521
03:00−6всв119674 1.3 101771
06:00−7с2593100 2.4 1017243
09:00−8ссз368885 2.5 1018249
12:00−4сз35770 0.0 1018799
15:00−3зсз367149 0.1 10171193
18:00−6зсз238571 0.2 101734
21:00−9зюз239049 0.2 101785
7 марта, вс
вс700:00−9юз39900 0.0 1015231
03:00−7юз5138129 0.0 1011515
06:00−6юз71677100 0.0 1007788
09:00−5юз91786100 0.1 10021170
12:00−2зюз91786100 0.9 9971427
15:00−2зсз81559100 2.3 9982334
18:00−6з4127124 0.0 1001657
21:00−6зюз5147341 0.0 10001027
8 марта, пн
пн800:00−5зюз6157891 0.0 9971116
03:00−5зюз7157896 0.0 9971148
06:00−9зсз51286100 0.4 999917
09:00−10сз7128386 0.4 1002951
12:00−7зсз6107191 0.1 10051134
15:00−6зсз6106862 0.1 10071261
18:00−7зсз397998 0.1 1008805
21:00−8зсз389499 0.1 1011359
9 марта, вт
вт900:00−12сз259479 0.0 1012109
03:00−12ссз369383 0.1 1013265
06:00−12ссз369298 0.1 1015396
09:00−13с478697 0.1 1017545
12:00−12ссз3679100 0.0 1019646
15:00−10ссз367289 0.0 1020912
18:00−12сз3785100 0.0 1020433
21:00−15зсз229051 0.0 102238